Location: Buckland
(65.9785°N, 161.1281°W)
Time: 21:31:30
(UTC+00:00)

Transit 4A - Pass Details

Date: 09 October 2022
Orbit: 871 x 972 km, 66.8° (Epoch: 01 December)

Event Time Altitude Azimuth Distance (km) Brightness Sun altitude
Exits shadow 11:31:27 81° 35° (NE) 910 7.8 -29.5°
Drops below altitude 10° 11:37:09 10° 84° (E) 2,543 10.4 -29.3°
Sets 11:39:37 0° 86° (E) 3,475 11.2 -29.2°
